This is the latest recevied weather packets stored in our database for station/object XE2MEM-21. If no packets are shown the sender has not sent any weather packets the latest 10 day(s).
| Time | Temp. | Humidity | Pressure | Rain* | Wind** | Luminosity | Snow |
|---|---|---|---|---|---|---|---|
| 1778086651 | 33.33° C | 100% | 1004.4 hPa | - | - | - | - |
| 1778085751 | 32.22° C | 100% | 1004.5 hPa | - | - | - | - |
| 1778084851 | 32.78° C | 100% | 1004.4 hPa | - | - | - | - |
| 1778083951 | 30.56° C | 100% | 1004.5 hPa | - | - | - | - |
| 1778083051 | 30.56° C | 100% | 1004.6 hPa | - | - | - | - |
| 1778082151 | 30.56° C | 100% | 1004.5 hPa | - | - | - | - |
| 1778081253 | 30° C | 100% | 1004.5 hPa | - | - | - | - |
| 1778080351 | 30° C | 100% | 1004.4 hPa | - | - | - | - |
| 1778079450 | 30.56° C | 100% | 1004.5 hPa | - | - | - | - |
| 1778078550 | 30° C | 100% | 1004.7 hPa | - | - | - | - |
| 1778077651 | 30° C | 100% | 1004.7 hPa | - | - | - | - |
| 1778076750 | 29.44° C | 100% | 1004.7 hPa | - | - | - | - |
| 1778075850 | 27.22° C | 100% | 1005 hPa | - | - | - | - |
| 1778074950 | 27.22° C | 100% | 1004.8 hPa | - | - | - | - |
| 1778074050 | 27.22° C | 100% | 1004.8 hPa | - | - | - | - |
| 1778073150 | 27.22° C | 100% | 1004.7 hPa | - | - | - | - |
| 1778072250 | 27.22° C | 100% | 1004.5 hPa | - | - | - | - |
| 1778071350 | 27.22° C | 100% | 1004.3 hPa | - | - | - | - |
| 1778070450 | 26.67° C | 100% | 1004 hPa | - | - | - | - |
| 1778069550 | 27.22° C | 100% | 1003.6 hPa | - | - | - | - |
| 1778068650 | 26.67° C | 100% | 1003.2 hPa | - | - | - | - |
| 1778067750 | 27.22° C | 100% | 1003.1 hPa | - | - | - | - |
| 1778066849 | 27.22° C | 100% | 1002.8 hPa | - | - | - | - |
| 1778065949 | 27.22° C | 100% | 1002.7 hPa | - | - | - | - |
| 1778065049 | 27.22° C | 100% | 1002.3 hPa | - | - | - | - |
* Rain since midnight (hover to see other rain measurements)
** Current wind speed in m/s (hover to see current wind gust speed)